Weather History for Clinton, IA

Change the Weather History Date:

Saturday, September 1, 2012

  Actual Average Record
Temperature  
Mean Temperature 72 °F -  
Max Temperature 77 °F 82 °F 100 °F (1953)
Min Temperature 68 °F 60 °F 42 °F (1949)
Cooling Degree Days 8    
Growing Degree Days 22 (Base 50)    
Moisture  
Dew Point 60 °F    
Average Humidity 67    
Maximum Humidity 88    
Minimum Humidity 56    
Precipitation  
Precipitation 0.00 in - - ()
Sea Level Pressure  
Sea Level Pressure 30.01 in    
Wind  
Wind Speed 13 mph (ENE)    
Max Wind Speed 21 mph    
Max Gust Speed 28 mph    
Visibility 10 miles    
Events      
Averages and records for this station are not official NWS values.
T = Trace of Precipitation, MM = Missing Value Source: NWS Daily Summary

Daily Weather History Graph

Daily Weather History Graph

Search for Another Location

Airport:

Trip Planner

Search our weather history database for the weather conditions in past years. The results will help you decide how hot, cold, wet, or windy it might be!

Date:

Astronomy

Sep. 01, 2012 Rise Set
Actual Time 6:27 AM CDT 7:33 PM CDT
Civil Twilight 5:58 AM CDT 8:02 PM CDT
Nautical Twilight 5:24 AM CDT 8:36 PM CDT
Astronomical Twilight 4:48 AM CDT 9:12 PM CDT
Moon 7:48 PM CDT (9/1) 7:37 AM CDT (9/1)
Length of Visible Light 14h 03m
Length of Day
13h 06m
Full, 99% of the Moon is Illuminated
Sep 1
Full
Sep 8
Last Quarter
Sep 15
New
Sep 22
First Quarter
Sep 29
Full

Hourly Weather History & Observations

Time (CDT) Temp. Dew Point Humidity Pressure Visibility Wind Dir Wind Speed Gust Speed Precip Events Conditions
12:15 AM 73.4 °F 69.8 °F 88% 30.05 in 10.0 mi ESE 6.9 mph - N/A   Clear
12:35 AM 73.4 °F 68.0 °F 83% 30.06 in 10.0 mi NE 8.1 mph - N/A   Clear
12:55 AM 73.4 °F 69.8 °F 88% 30.05 in 10.0 mi ENE 9.2 mph - N/A   Clear
1:15 AM 73.4 °F 69.8 °F 88% 30.05 in 10.0 mi East 9.2 mph - N/A   Clear
1:35 AM 73.4 °F 69.8 °F 88% 30.05 in 10.0 mi ENE 10.4 mph - N/A   Clear
1:55 AM 73.4 °F 68.0 °F 83% 30.04 in 10.0 mi ENE 11.5 mph - N/A   Clear
2:15 AM 71.6 °F 66.2 °F 83% 30.04 in 10.0 mi ENE 12.7 mph - N/A   Clear
2:35 AM 71.6 °F 64.4 °F 78% 30.04 in 10.0 mi ENE 15.0 mph - N/A   Clear
2:55 AM 71.6 °F 64.4 °F 78% 30.04 in 10.0 mi East 12.7 mph - N/A   Clear
3:15 AM 71.6 °F 62.6 °F 73% 30.05 in 10.0 mi East 9.2 mph - N/A   Clear
3:35 AM 69.8 °F 60.8 °F 73% 30.04 in 10.0 mi East 10.4 mph - N/A   Clear
3:55 AM 69.8 °F 57.2 °F 64% 30.04 in 10.0 mi East 12.7 mph - N/A   Clear
4:15 AM 69.8 °F 55.4 °F 60% 30.03 in 10.0 mi East 11.5 mph - N/A   Clear
4:35 AM 69.8 °F 55.4 °F 60% 30.02 in 10.0 mi ENE 12.7 mph - N/A   Clear
4:55 AM 69.8 °F 53.6 °F 56% 30.02 in 10.0 mi ENE 13.8 mph - N/A   Clear
5:15 AM 69.8 °F 53.6 °F 56% 30.01 in 10.0 mi East 11.5 mph - N/A   Clear
5:35 AM 69.8 °F 53.6 °F 56% 30.01 in 10.0 mi ENE 13.8 mph - N/A   Clear
5:55 AM 69.8 °F 53.6 °F 56% 30.01 in 10.0 mi ENE 13.8 mph - N/A   Partly Cloudy
6:15 AM 69.8 °F 55.4 °F 60% 30.01 in 10.0 mi ENE 16.1 mph - N/A   Scattered Clouds
6:35 AM 69.8 °F 55.4 °F 60% 30.01 in 10.0 mi ENE 13.8 mph - N/A   Partly Cloudy
6:55 AM 69.8 °F 55.4 °F 60% 30.02 in 10.0 mi ENE 16.1 mph - N/A   Clear
7:15 AM 69.8 °F 57.2 °F 64% 30.03 in 10.0 mi ENE 13.8 mph - N/A   Clear
7:35 AM 71.6 °F 57.2 °F 60% 30.03 in 10.0 mi East 15.0 mph - N/A   Partly Cloudy
7:55 AM 69.8 °F 57.2 °F 64% 30.03 in 10.0 mi ENE 16.1 mph - N/A   Partly Cloudy
8:15 AM 71.6 °F 57.2 °F 60% 30.02 in 10.0 mi ENE 16.1 mph - N/A   Partly Cloudy
8:35 AM 71.6 °F 59.0 °F 64% 30.03 in 10.0 mi ENE 17.3 mph 23.0 mph N/A   Clear
8:55 AM 71.6 °F 59.0 °F 64% 30.03 in 10.0 mi East 17.3 mph 21.9 mph N/A   Mostly Cloudy
9:15 AM 71.6 °F 59.0 °F 64% 30.03 in 10.0 mi ENE 15.0 mph - N/A   Overcast
9:35 AM 71.6 °F 59.0 °F 64% 30.03 in 10.0 mi East 18.4 mph 23.0 mph N/A   Mostly Cloudy
9:55 AM 71.6 °F 59.0 °F 64% 30.03 in 10.0 mi East 16.1 mph - N/A   Scattered Clouds
10:15 AM 71.6 °F 59.0 °F 64% 30.03 in 10.0 mi ENE 12.7 mph 19.6 mph N/A   Mostly Cloudy
10:35 AM 71.6 °F 59.0 °F 64% 30.04 in 10.0 mi ENE 13.8 mph - N/A   Overcast
10:55 AM 71.6 °F 59.0 °F 64% 30.04 in 10.0 mi ENE 13.8 mph - N/A   Mostly Cloudy
11:15 AM 71.6 °F 59.0 °F 64% 30.04 in 10.0 mi East 17.3 mph - N/A   Partly Cloudy
11:35 AM 73.4 °F 59.0 °F 61% 30.03 in 10.0 mi East 17.3 mph 23.0 mph N/A   Clear
11:55 AM 73.4 °F 59.0 °F 61% 30.03 in 10.0 mi ENE 17.3 mph 24.2 mph N/A   Clear
12:15 PM 73.4 °F 60.8 °F 65% 30.02 in 10.0 mi ENE 16.1 mph 21.9 mph N/A   Clear
12:35 PM 73.4 °F 60.8 °F 65% 30.02 in 10.0 mi ENE 19.6 mph - N/A   Scattered Clouds
12:55 PM 73.4 °F 60.8 °F 65% 30.02 in 10.0 mi ENE 17.3 mph 24.2 mph N/A   Overcast
1:15 PM 73.4 °F 60.8 °F 65% 30.01 in 10.0 mi ENE 15.0 mph 19.6 mph N/A   Scattered Clouds
1:35 PM 73.4 °F 62.6 °F 69% 30.01 in 10.0 mi ENE 18.4 mph 23.0 mph N/A   Clear
1:55 PM 73.4 °F 62.6 °F 69% 30.01 in 10.0 mi ENE 18.4 mph 23.0 mph N/A   Scattered Clouds
2:15 PM 73.4 °F 62.6 °F 69% 30.00 in 10.0 mi ENE 11.5 mph - N/A   Mostly Cloudy
2:35 PM 73.4 °F 62.6 °F 69% 30.00 in 10.0 mi ENE 16.1 mph 21.9 mph N/A   Mostly Cloudy
3:15 PM 75.2 °F 64.4 °F 69% 29.98 in 10.0 mi ENE 18.4 mph 27.6 mph N/A   Partly Cloudy
3:35 PM 77.0 °F 64.4 °F 65% 29.98 in 10.0 mi ENE 20.7 mph 24.2 mph N/A   Clear
3:55 PM 75.2 °F 64.4 °F 69% 29.97 in 10.0 mi ENE 19.6 mph 25.3 mph N/A   Clear
4:15 PM 75.2 °F 62.6 °F 65% 29.97 in 10.0 mi ENE 16.1 mph 23.0 mph N/A   Mostly Cloudy
4:35 PM 75.2 °F 62.6 °F 65% 29.97 in 10.0 mi ENE 19.6 mph - N/A   Mostly Cloudy
4:55 PM 75.2 °F 62.6 °F 65% 29.96 in 10.0 mi ENE 20.7 mph 26.5 mph N/A   Partly Cloudy
5:15 PM 75.2 °F 62.6 °F 65% 29.97 in 10.0 mi ENE 17.3 mph 23.0 mph N/A   Clear
5:35 PM 75.2 °F 62.6 °F 65% 29.96 in 10.0 mi ENE 18.4 mph 26.5 mph N/A   Mostly Cloudy
5:55 PM 73.4 °F 62.6 °F 69% 29.96 in 10.0 mi ENE 17.3 mph 24.2 mph N/A   Mostly Cloudy
6:15 PM 73.4 °F 62.6 °F 69% 29.96 in 10.0 mi ENE 15.0 mph 25.3 mph N/A   Scattered Clouds
6:35 PM 73.4 °F 62.6 °F 69% 29.96 in 10.0 mi ENE 20.7 mph - N/A   Partly Cloudy
6:55 PM 73.4 °F 60.8 °F 65% 29.96 in 10.0 mi ENE 17.3 mph 26.5 mph N/A   Clear
7:15 PM 71.6 °F 60.8 °F 69% 29.96 in 10.0 mi NE 16.1 mph 24.2 mph N/A   Partly Cloudy
7:35 PM 71.6 °F 60.8 °F 69% 29.96 in 10.0 mi ENE 19.6 mph 24.2 mph N/A   Clear
7:55 PM 71.6 °F 59.0 °F 64% 29.96 in 10.0 mi ENE 18.4 mph 23.0 mph N/A   Clear
8:15 PM 71.6 °F 59.0 °F 64% 29.97 in 10.0 mi ENE 18.4 mph 21.9 mph N/A   Clear
8:35 PM 69.8 °F 59.0 °F 68% 29.97 in 10.0 mi ENE 17.3 mph 21.9 mph N/A   Clear
9:15 PM 69.8 °F 57.2 °F 64% 29.97 in 10.0 mi ENE 17.3 mph 23.0 mph N/A   Clear
9:35 PM 69.8 °F 57.2 °F 64% 29.97 in 10.0 mi ENE 20.7 mph 25.3 mph N/A   Clear
9:55 PM 69.8 °F 57.2 °F 64% 29.97 in 10.0 mi ENE 19.6 mph 25.3 mph N/A   Clear
10:15 PM 69.8 °F 57.2 °F 64% 29.96 in 10.0 mi ENE 17.3 mph 24.2 mph N/A   Clear
10:35 PM 69.8 °F 57.2 °F 64% 29.96 in 10.0 mi ENE 17.3 mph 21.9 mph N/A   Clear
11:15 PM 68.0 °F 57.2 °F 68% 29.96 in 10.0 mi ENE 16.1 mph 21.9 mph N/A   Clear
11:35 PM 68.0 °F 57.2 °F 68% 29.96 in 10.0 mi ENE 15.0 mph 21.9 mph N/A   Clear
11:55 PM 68.0 °F 57.2 °F 68% 29.96 in 10.0 mi ENE 16.1 mph - N/A   Clear